Austin Bergstrom, TX

4:03 AM CDT on April 29, 2017 (GMT -0500)
Austin Bergstrom International

Weather History for KAUS - February, 2014

Change the Weather History Date:

Wednesday, February 26, 2014

  Actual Average Record
Temperature  
Mean Temperature 40 °F 54 °F  
Max Temperature 51 °F 67 °F 88 °F (2009)
Min Temperature 29 °F 42 °F 23 °F (2002)
Degree Days  
Heating Degree Days 25 11  
Month to date heating degree days 342 350  
Since 1 July heating degree days 1785 1592  
Cooling Degree Days 0 1  
Month to date cooling degree days 16 6  
Year to date cooling degree days 17 11  
Moisture  
Dew Point 34 °F    
Average Humidity 74    
Maximum Humidity 93    
Minimum Humidity 54    
Precipitation  
Precipitation 0.27 in 0.10 in 0.95 in (1984)
Month to date precipitation 0.52 2.11  
Year to date precipitation 1.09 4.31  
Snow  
Snow 0.00 in - - ()
Month to date snowfall T  
Since 1 July snowfall T  
Snow Depth 0.00 in    
Sea Level Pressure  
Sea Level Pressure 30.16 in    
Wind  
Wind Speed 15 mph (North)    
Max Wind Speed 32 mph    
Max Gust Speed 40 mph    
Visibility 7 miles    
Events Rain    
T = Trace of Precipitation, MM = Missing Value Source: NWS Daily Summary

Daily Weather History Graph

Daily Weather History Graph

Search for Another Location

Airport or City:

Trip Planner

Search our weather history database for the weather conditions in past years. The results will help you decide how hot, cold, wet, or windy it might be!

Date:

Astronomy

Feb. 26, 2014 Rise Set
Actual Time 6:59 AM CST 6:27 PM CST
Civil Twilight 6:35 AM CST 6:51 PM CST
Nautical Twilight 6:07 AM CST 7:19 PM CST
Astronomical Twilight 5:40 AM CST 7:47 PM CST
Moon 4:38 AM CST (2/26) 3:51 PM CST (2/26)
Length of Visible Light 12h 15m
Length of Day
11h 27m
Waning Crescent, 10% of the Moon is Illuminated
Feb 26
Waning Crescent
Mar 1
New
Mar 8
First Quarter
Mar 16
Full
Mar 23
Last Quarter

Hourly Weather History & Observations

Time (CST) Temp. Windchill Dew Point Humidity Pressure Visibility Wind Dir Wind Speed Gust Speed Precip Events Conditions
12:00 AM 51.8 °F - 48.2 °F 88% 30.04 in 3.0 mi North 15.0 mph - 0.00 in   Light Drizzle
12:53 AM 50.0 °F - 48.0 °F 93% 30.04 in 3.0 mi North 15.0 mph - 0.00 in   Light Drizzle
1:36 AM 48.2 °F - 48.2 °F 100% 30.06 in 4.0 mi North 16.1 mph - 0.02 in Rain Light Rain
1:51 AM 48.2 °F - 48.2 °F 100% 30.03 in 2.5 mi NNE 23.0 mph - 0.05 in Rain Heavy Rain
1:53 AM 48.9 °F - 48.0 °F 97% 30.04 in 2.5 mi NNE 23.0 mph - 0.06 in Rain Heavy Rain
2:12 AM 48.2 °F - 46.4 °F 93% 30.05 in 4.0 mi North 24.2 mph 29.9 mph 0.11 in Rain Light Rain
2:37 AM 48.2 °F - 46.4 °F 93% 30.06 in 7.0 mi North 20.7 mph 26.5 mph 0.14 in   Mostly Cloudy
2:53 AM 48.0 °F - 46.9 °F 96% 30.07 in 6.0 mi North 21.9 mph - 0.14 in   Light Drizzle
3:53 AM 44.1 °F 35.0 °F 43.0 °F 96% 30.10 in 7.0 mi North 24.2 mph 35.7 mph 0.00 in   Overcast
4:03 AM 44.6 °F 36.6 °F 42.8 °F 93% 30.10 in 7.0 mi North 19.6 mph - N/A   Overcast
4:53 AM 42.1 °F 31.9 °F 37.9 °F 85% 30.13 in 7.0 mi North 26.5 mph 34.5 mph N/A   Overcast
5:17 AM 42.8 °F 33.1 °F 37.4 °F 81% 30.13 in 8.0 mi North 25.3 mph 33.4 mph N/A   Overcast
5:53 AM 42.1 °F 32.6 °F 36.0 °F 79% 30.15 in 8.0 mi North 23.0 mph 29.9 mph N/A   Overcast
6:53 AM 41.0 °F 30.2 °F 35.1 °F 79% 30.18 in 9.0 mi North 27.6 mph 36.8 mph N/A   Overcast
7:53 AM 39.9 °F 30.2 °F 34.0 °F 79% 30.22 in 8.0 mi North 20.7 mph 31.1 mph N/A   Overcast
8:53 AM 39.9 °F 30.0 °F 30.0 °F 68% 30.23 in 9.0 mi North 21.9 mph 38.0 mph N/A   Overcast
9:53 AM 39.0 °F 28.3 °F 30.9 °F 73% 30.25 in 6.0 mi North 24.2 mph 32.2 mph 0.01 in Rain Light Rain
10:39 AM 37.4 °F 26.4 °F 30.2 °F 75% 30.22 in 8.0 mi North 23.0 mph 32.2 mph 0.01 in   Overcast
10:53 AM 37.0 °F 25.6 °F 30.9 °F 79% 30.25 in 6.0 mi North 24.2 mph 32.2 mph 0.01 in   Haze
11:53 AM 36.0 °F 25.6 °F 30.9 °F 82% 30.25 in 6.0 mi North 18.4 mph 25.3 mph 0.02 in Rain Light Rain
12:53 PM 37.9 °F 29.2 °F 32.0 °F 79% 30.23 in 6.0 mi North 15.0 mph - 0.01 in Rain Light Rain
1:39 PM 39.2 °F 30.8 °F 30.2 °F 70% 30.19 in 8.0 mi North 15.0 mph 20.7 mph 0.01 in   Overcast
1:53 PM 39.0 °F 30.3 °F 32.0 °F 76% 30.19 in 8.0 mi North 16.1 mph - 0.01 in   Overcast
2:53 PM 37.9 °F 29.2 °F 30.0 °F 73% 30.17 in 9.0 mi North 15.0 mph - 0.01 in   Overcast
3:53 PM 39.0 °F 31.8 °F 30.0 °F 70% 30.18 in 9.0 mi North 11.5 mph - N/A   Overcast
4:53 PM 39.9 °F 34.5 °F 28.0 °F 63% 30.18 in 10.0 mi North 8.1 mph - N/A   Overcast
5:53 PM 39.9 °F 33.9 °F 25.0 °F 55% 30.18 in 10.0 mi North 9.2 mph - N/A   Mostly Cloudy
6:53 PM 39.9 °F 33.9 °F 25.0 °F 55% 30.18 in 10.0 mi North 9.2 mph - N/A   Mostly Cloudy
7:53 PM 35.1 °F 29.3 °F 25.0 °F 67% 30.20 in 10.0 mi North 6.9 mph - N/A   Scattered Clouds
8:53 PM 34.0 °F 31.0 °F 26.1 °F 73% 30.23 in 10.0 mi NNW 3.5 mph - N/A   Clear
9:53 PM 32.0 °F - 26.1 °F 79% 30.23 in 10.0 mi Calm Calm - N/A   Clear
10:53 PM 30.9 °F - 27.0 °F 85% 30.23 in 10.0 mi Calm Calm - N/A   Clear
11:53 PM 30.0 °F 26.5 °F 27.0 °F 88% 30.22 in 10.0 mi NW 3.5 mph - N/A   Clear